Home   Weather   Liverpool   Past weeks

Flag for United Kingdom Past Weather in Liverpool, England, United Kingdom — Yesterday and Last 2 Weeks

Now
43 °F

Passing clouds.


Feels Like: 35 °F
Forecast: N/A
Wind: 15 mph from Northwest

Location: Liverpool Airport

Current Time: Feb 23, 2017 at 8:38:46 pm

Latest Report: Feb 23, 2017 at 7:50 pm


Visibility: N/A

Pressure: 29.62 "Hg

Humidity: 81%

Dew Point: 37 °F

Location of LiverpoolLocation

Past Weather in Liverpool — Graph

°F

Liverpool Temperature Yesterday

Maximum temperature yesterday: 55 °F (at 1:50 am)
Minimum temperature yesterday: 45 °F (at 10:50 pm)
Average temperature yesterday: 49 °F

High & Low Weather Summary for the Past Weeks

 TemperatureHumidityPressure
High59 °F (Feb 20, 9:50 am)100% (Feb 15, 5:50 am)30.45 "Hg (Feb 15, 5:50 am)
Low32 °F (Feb 9, 12:20 am)62% (Feb 13, 12:20 pm)28.94 "Hg (Feb 23, 8:50 am)
Average45 °F84%30.12 "Hg
* Reported Feb 8 7:20 pm — Feb 23 7:20 pm, Liverpool, Weather by CustomWeather, © 2017

Note: Actual official high and low records may vary slightly from our data, if they occured in-between our weather recording intervals... More about our weather records

Advertising

Liverpool Weather History for the Previous 24 Hours

Scroll right to see more
 ConditionsComfort  
Time TempWeatherWind HumidityBarometerVisibility
7:20 pm
Thu, Feb 23
43 °FLight rain. Partly cloudy.17 mph81%29.62 "HgN/A
6:50 pm43 °FPartly cloudy.16 mph81%29.59 "HgN/A
6:20 pm43 °FScattered showers. Partly cloudy.20 mph81%29.56 "HgN/A
5:50 pm45 °FScattered showers. Passing clouds.18 mph76%29.53 "HgN/A
5:20 pm43 °FScattered showers. Scattered clouds.22 mph76%29.50 "HgN/A
4:50 pm43 °FScattered showers. Scattered clouds.26 mph81%29.47 "HgN/A
4:20 pm45 °FScattered clouds.24 mph76%29.45 "HgN/A
3:50 pm45 °FPartly sunny.24 mph81%29.42 "HgN/A
3:20 pm43 °FRain showers. Partly sunny.30 mph81%29.39 "HgN/A
2:50 pm43 °FRain. Partly sunny.35 mph81%29.36 "Hg5 mi
2:20 pm45 °FRain. Partly sunny.35 mph81%29.30 "Hg4 mi
1:50 pm45 °FRain. Broken clouds.43 mph76%29.27 "Hg4 mi
1:20 pm45 °FRain. Partly sunny.45 mph76%29.21 "Hg3 mi
12:50 pm43 °FRain. Partly sunny.45 mph87%29.18 "Hg3 mi
12:20 pm45 °FLight rain. Mostly cloudy.40 mph81%29.15 "Hg2 mi
11:50 am45 °FLight rain. Cloudy.44 mph76%29.12 "Hg2 mi
11:20 am43 °FRain. Cloudy.47 mph87%29.06 "Hg2 mi
10:50 am43 °FRain. Cloudy.51 mph87%29.00 "Hg2 mi
10:20 am41 °FRain. Broken clouds.47 mph93%28.97 "Hg2 mi
9:50 am41 °FRain. Broken clouds.48 mph93%28.94 "Hg2 mi
9:20 am41 °FRain. Broken clouds.38 mph93%28.94 "Hg3 mi
8:50 am45 °FRain. Broken clouds.31 mph81%28.94 "Hg4 mi
8:20 am46 °FSprinkles. Passing clouds.30 mph76%28.97 "HgN/A
7:50 am46 °FRain showers. Scattered clouds.30 mph82%29.00 "HgN/A
7:20 am46 °FSprinkles. Scattered clouds.25 mph82%29.03 "HgN/A
6:50 am48 °FLight rain. Passing clouds.28 mph76%29.03 "HgN/A
6:20 am48 °FRain. Passing clouds.29 mph87%29.06 "HgN/A
5:50 am50 °FRain. Passing clouds.18 mph88%29.09 "HgN/A
5:20 am50 °FPassing clouds.14 mph88%29.12 "HgN/A
4:50 am52 °FPassing clouds.30 mph82%29.18 "HgN/A
4:20 am52 °FPassing clouds.26 mph82%29.21 "HgN/A
3:50 am52 °FMostly cloudy.23 mph82%29.24 "HgN/A
3:20 am52 °FMostly cloudy.23 mph82%29.30 "HgN/A
2:50 am52 °FPassing clouds.24 mph82%29.33 "HgN/A
2:20 am52 °FPassing clouds.23 mph82%29.36 "HgN/A
1:50 am50 °FLight rain. Partly cloudy.23 mph88%29.36 "HgN/A
1:20 am48 °FLight rain. Partly cloudy.8 mph94%29.42 "HgN/A
12:50 am48 °FPassing clouds.6 mph94%29.42 "Hg4 mi
12:20 am46 °FPartly cloudy.3 mph93%29.47 "Hg4 mi
11:50 pm
Wed, Feb 22
45 °FLight rain. Partly cloudy.8 mph100%29.47 "Hg5 mi
11:20 pm45 °FRain. Partly cloudy.5 mph93%29.50 "Hg5 mi
10:50 pm45 °FLight rain. Partly cloudy.5 mph93%29.53 "Hg6 mi
10:20 pm46 °FPassing clouds.2 mph93%29.56 "HgN/A
9:50 pm46 °FPassing clouds.3 mph93%29.59 "HgN/A
9:20 pm46 °FLight rain. Passing clouds.5 mph93%29.59 "HgN/A
8:50 pm48 °FRain. Partly cloudy.6 mph94%29.62 "HgN/A
8:20 pm48 °FLight rain. Passing clouds.8 mph94%29.62 "HgN/A
Weather by CustomWeather, © 2017

See weather overviewHow to use our weather pages